Location: Newark
(42.9277°N, 71.8621°W)
Time: 19:59:42
(UTC+00:00)

ISS - Visible Passes

Search period start: 01 August 2021 00:00
Search period end: 11 August 2021 00:00
Orbit: 419 x 421 km, 51.6° (Epoch: 01 August)

Date Brightness Start Highest point End Pass type
(mag) Time Alt. Az. Time Alt. Az. Time Alt. Az.
01 Aug -2.5 01:52:49 10° WNW 01:55:49 29° SW 01:56:38 26° SSW visible
02 Aug -3.2 01:05:19 10° WNW 01:08:36 49° SW 01:11:09 15° SSE visible
03 Aug -1.1 01:56:52 10° WSW 01:57:39 11° SW 01:58:25 10° SW visible
04 Aug -1.5 01:08:13 10° W 01:10:34 18° SW 01:12:55 10° S visible
